AirNav   Air Wisconsin Up To $57,000 Bonus
 
 1067 users online  

2VG2 Upperville Airport
Upperville, Virginia, USA

GOING TO UPPERVILLE?


FAA INFORMATION EFFECTIVE 02 JANUARY 2020

Location

FAA Identifier: 2VG2
Lat/Long: 38-58-17.8900N 077-52-11.6550W
38-58.298167N 077-52.194250W
38.9716361,-77.8699042
(estimated)
Elevation: 557.7 ft. / 170 m (estimated)
Variation: 09W (1985)
From city: 2 miles SE of UPPERVILLE, VA
Time zone: UTC -5 (UTC -4 during Daylight Saving Time)
Zip code: 20184

Airport Operations

Airport use: Private use. Permission required prior to landing
Activation date: 11/1957
Control tower: no
ARTCC: WASHINGTON CENTER
FSS: LEESBURG FLIGHT SERVICE STATION
NOTAMs facility: FDC (NOTAM-D service not available)
Attendance: UNATNDD
Wind indicator: yes
Segmented circle: no
Lights: FOR RWY LGTS CALL 540-592-3465.
International operations: customs landing rights airport

Airport Communications

UNICOM: 122.725
TIKEE STAR: 120.45
WX AWOS-3 at JYO (16 nm NE): 125.225 (703-777-3781)
WX AWOS-3 at OKV (16 nm NW): 124.85 (540-662-6970)
WX AWOS-3 at FRR (18 nm W): 121.85 (540-635-5377)
WX ASOS at IAD (19 nm E): PHONE 703-661-2990

Nearby radio navigation aids

VOR radial/distance  VOR name  Freq  Var
LDNr072/17.2LINDEN VORTAC114.3006W
AMLr285/18.9ARMEL VOR/DME113.5008W
CSNr005/19.8CASANOVA VORTAC116.3006W
MRBr189/24.9MARTINSBURG VORTAC112.1007W
FDKr229/(35.0)FREDERICK VOR109.0008W
DCAr289/39.5WASHINGTON VOR/DME111.0009W

 
NDB name  Hdg/Dist  Freq  Var  ID
NAILR013/31.135110WMSQ -- ... --.-
CAVERNS069/32.624509WLUA .-.. ..- .-
GEORGETOWN283/34.932309WGTN --. - -.

Airport Services

Airframe service: NONE
Powerplant service: NONE

Runway Information

Runway 13/31

Dimensions: 5100 x 100 ft. / 1554 x 30 m
Surface: asphalt
Runway edge lights: medium intensity
RUNWAY 13  RUNWAY 31
Latitude: 38-58.510167N38-58.086167N
Longitude: 077-52.658833W077-51.729667W
Elevation: 557.7 ft.519.9 ft.
Traffic pattern: leftleft
Touchdown point: yes, no lightsyes, no lights

Airport Ownership and Management from official FAA records

Ownership: Privately-owned
Owner: OAK SPRING GARDEN FDN
1776 LOUGHBOROUGH LANE
UPPERVILLE, VA 20184
Phone (540) 592-3240
Manager: OAK SPRING GARDEN FDN
1776 LOUGHBOROUGH LANE, 8540 MILL REEF RD
UPPERVILLE, VA 20184
Phone (540) 592-3240

Additional Remarks

FOR CD CTC POTOMAC APCH AT 866-709-4993.

Instrument Procedures

NOTE: All procedures below are presented as PDF files. If you need a reader for these files, you should download the free Adobe Reader.

NOT FOR NAVIGATION. Please procure official charts for flight.
FAA instrument procedures published for use from 02 January 2020 at 0901Z to 30 January 2020 at 0900Z.

 
STARs - Standard Terminal Arrivals
TIKEE THREE (RNAV)   download (212KB)

Other nearby airports with instrument procedures:

9VA5 - Bluegrass Heliport (6 nm N)
KJYO - Leesburg Executive Airport (16 nm NE)
KOKV - Winchester Regional Airport (16 nm NW)
KFRR - Front Royal-Warren County Airport (18 nm W)
KIAD - Washington Dulles International Airport (19 nm E)
 
Loc | Ops | Rwys | IFR | FBO | Links
Com | Nav | Svcs | Stats | Notes
Area around 2VG2 (Upperville Airport)
 
Road maps at: MapQuest Bing Google
 
Aerial photo
WARNING: Photo may not be current or correct
Aerial photo of 2VG2 (Upperville Airport)
Photo taken 19-May-2012
looking west.

Do you have a better or more recent aerial photo of Upperville Airport that you would like to share? If so, please send us your photo.

 
Sectional chart

 
Airport distance calculator
Flying to Upperville Airport? Find the distance to fly.

From to 2VG2

Sunrise and sunset
Times for 25-Jan-2020
 Local
(UTC-5)
 Zulu
(UTC)
Morning civil twilight06:5611:56
Sunrise07:2512:25
Sunset17:2322:23
Evening civil twilight17:5222:52

Current date and time
Zulu (UTC)  26-Jan-2020 03:23:11
Local (UTC-5)  25-Jan-2020 22:23:11
 
METAR
KJYO 
15nm E 
260255Z AUTO 27003KT 10SM CLR 04/00 A2991 RMK AO2
KOKV 
16nm NW 
260255Z AUTO 26007KT 10SM CLR 03/M02 A2988 RMK AO2
KFRR 
18nm W 
260255Z AUTO 00000KT 10SM CLR 03/M01 A2989 RMK AO1
KIAD 
20nm E 
260252Z 30003KT 10SM FEW060 04/M01 A2990 RMK AO2 SLP125 T00391011 51007 $
KHEF 
23nm SE 
260256Z 35003KT 10SM OVC050 03/02 A2991 RMK AO2 SLP136 T00330022 51008
KHWY 
24nm S 
260255Z AUTO 00000KT 10SM SCT043 OVC050 02/01 A2990 RMK AO2 T00240011
KMRB 
26nm N 
260253Z AUTO 24004KT 10SM FEW047 04/M02 A2989 RMK AO2 SLP123 T00391022 53003
KCJR 
30nm SW 
260255Z AUTO 00000KT 1 1/2SM BR SCT001 OVC041 03/03 A2992 RMK AO2 T00340027
TAF
KIAD 
20nm E 
252100Z 2521/2624 30009KT P6SM VCSH BKN050 FM260000 30006KT P6SM FEW040 SCT250 FM262000 28009KT P6SM SCT050 BKN100
NOTAMs
Click for the latest NOTAMs
NOTAMs are issued by the DoD/FAA and will open in a separate window not controlled by AirNav.

 

 
 

Would you like to see your business listed on this page?

 If your business provides an interesting product or service to pilots, flight crews, aircraft, or users of the Upperville Airport, you should consider listing it here.  To start the listing process, click on the button below
 
Add a business
 

Other Pages about Upperville Airport

Update a link
 
Copyright © AirNav, LLC. All rights reserved. Privacy Policy  Contact